{"data":{"norad_id":67209,"epoch":"2026-05-24T22:57:35.201088Z","epoch_age_seconds":74714,"freshness":"FRESH","line1":"1 67209U 25304T   26144.95665742  .00004048  00000+0  34689-3 0  9997","line2":"2 67209  70.0019 342.3671 0002910 269.3229  90.7597 14.98323554 25305","mean_motion":14.98323554,"eccentricity":0.000291,"inclination_deg":70.0019,"raan_deg":342.3671,"arg_perigee_deg":269.3229,"mean_anomaly_deg":90.7597,"bstar":0.00034689,"rev_number":2530,"period_min":96.107412591606,"perigee_km":570.05331280715,"apogee_km":574.09833667115,"semimajor_km":6950.2128247391,"source":"CELESTRAK","updated_at":"2026-05-25T13:38:21.511772Z"}}